This is the latest recevied weather packets stored in our database for station/object WB9FIU. If no packets are shown the sender has not sent any weather packets the latest 1 day(s).
| Time | Temp. | Humidity | Pressure | Rain* | Wind** | Luminosity | Snow |
|---|---|---|---|---|---|---|---|
| 1778045101 | 9.44° C | 94% | 1007.4 hPa | 1.52 mm | 0.45 m/s, 353° | - | - |
| 1778045041 | 9.44° C | 94% | 1007.4 hPa | 1.52 mm | 0.89 m/s, 343° | - | - |
| 1778044981 | 9.44° C | 94% | 1007.4 hPa | 1.52 mm | 2.24 m/s, 351° | - | - |
| 1778044921 | 9.44° C | 94% | 1007.3 hPa | 1.52 mm | 2.24 m/s, 349° | - | - |
| 1778044861 | 9.44° C | 94% | 1007.3 hPa | 1.52 mm | 0.89 m/s, 341° | - | - |
| 1778044801 | 9.44° C | 94% | 1007.2 hPa | 1.52 mm | 0.89 m/s, 0° | - | - |
| 1778044740 | 9.44° C | 94% | 1007.2 hPa | 1.78 mm | 0.89 m/s, 346° | - | - |
| 1778044680 | 9.44° C | 94% | 1007.3 hPa | 1.78 mm | 1.34 m/s, 332° | - | - |
| 1778044620 | 9.44° C | 94% | 1007.3 hPa | 1.78 mm | 1.34 m/s, 11° | - | - |
| 1778044560 | 9.44° C | 94% | 1007.4 hPa | 1.78 mm | 2.24 m/s, 8° | - | - |
| 1778044500 | 9.44° C | 94% | 1007.5 hPa | 1.78 mm | 1.34 m/s, 11° | - | - |
| 1778044440 | 9.44° C | 94% | 1007.6 hPa | 1.52 mm | 1.34 m/s, 8° | - | - |
| 1778044380 | 9.44° C | 94% | 1007.7 hPa | 1.78 mm | 0.89 m/s, 2° | - | - |
| 1778044321 | 9.44° C | 94% | 1007.7 hPa | 1.78 mm | 0.89 m/s, 353° | - | - |
| 1778044260 | 9.44° C | 94% | 1007.8 hPa | 1.78 mm | 1.34 m/s, 326° | - | - |
| 1778044200 | 9.44° C | 94% | 1007.7 hPa | 1.78 mm | 0.45 m/s, 0° | - | - |
| 1778044082 | 9.44° C | 94% | 1007.9 hPa | 1.78 mm | 0.45 m/s, 320° | - | - |
| 1778044022 | 9.44° C | 94% | 1007.9 hPa | 1.78 mm | 0.45 m/s, 299° | - | - |
| 1778043962 | 9.44° C | 94% | 1007.9 hPa | 1.78 mm | 0.45 m/s, 299° | - | - |
| 1778043902 | 9.44° C | 94% | 1007.8 hPa | 1.78 mm | 0 m/s | - | - |
| 1778043844 | 9.44° C | 94% | 1007.8 hPa | 1.78 mm | 0.45 m/s, 7° | - | - |
| 1778043782 | 9.44° C | 94% | 1007.8 hPa | 1.78 mm | 0.45 m/s, 1° | - | - |
| 1778043722 | 9.44° C | 94% | 1007.7 hPa | 2.03 mm | 0.89 m/s, 343° | - | - |
| 1778043697 | 9.44° C | 94% | 1007.6 hPa | 2.03 mm | 0.89 m/s, 356° | - | - |
| 1778043662 | 9.44° C | 94% | 1007.6 hPa | 2.03 mm | 0.89 m/s, 356° | - | - |
* Rain latest hour (hover to see other rain measurements)
** Current wind speed in m/s (hover to see current wind gust speed)